Location: ????????
(55.5667°N, 37.5833°E)
Time: 18:40:14
(UTC+00:00)

Cosmos 1420 Rocket - Pass Details

Date: 14 April 2026
Orbit: 749 x 777 km, 74.0° (Epoch: 19 May)

Event Time Altitude Azimuth Distance (km) Brightness Sun altitude
Exits shadow 21:20:25 48° 108° (ESE) 1,002 4.4 -24.7°
Drops below altitude 10° 21:25:28 10° 36° (NE) 2,328 7.2 -24.8°
Sets 21:27:56 0° 31° (NNE) 3,263 8.2 -24.8°
